{"data":{"norad_id":69796,"epoch":"2026-09-19T12:22:14.186208Z","epoch_age_seconds":110486,"freshness":"FRESH","line1":"1 69796U 98067YL  26262.51544197  .00042694  00000+0  60660-3 0  9996","line2":"2 69796  51.6314 191.2100 0009459 168.8003 191.3201 15.55915770 12292","mean_motion":15.5591577,"eccentricity":0.0009459,"inclination_deg":51.6314,"raan_deg":191.21,"arg_perigee_deg":168.8003,"mean_anomaly_deg":191.3201,"bstar":0.0006066,"rev_number":1229,"period_min":92.549997099136,"perigee_km":393.08094557222,"apogee_km":405.90286393423,"semimajor_km":6777.6289047532,"source":"CELESTRAK","updated_at":"2026-09-20T09:00:25.117534Z"}}